Regional Weather Roundup
Issued by NWS

Home | Current Version | Previous Version | Graphics & Text | Print | Product List | Glossary Off
Versions: 1 2 3 4 5 6 7 8 9 10 11 12 13 14 15 16 17 18 19 20 21 22 23 24 25 26 27 28 29 30 31 32 33 34 35 36 37 38 39 40 41 42 43 44 45 46 47 48 49 50

000
ASUS43 KFSD 272310
RWRSD

WEATHER ROUNDUP FOR SOUTH DAKOTA
NATIONAL WEATHER SERVICE SIOUX FALLS SD
500 PM CST TUE JAN 27 2015

NOTE: "FAIR" INDICATES FEW OR NO CLOUDS BELOW 12,000 FEET WITH NO
SIGNIFICANT WEATHER AND/OR OBSTRUCTIONS TO VISIBILITY.


SDZ001>005-009-010-012>017-280000-
NORTHWEST AND NORTH CENTRAL SOUTH DAKOTA

CITY           SKY/WX    TMP DP  RH WIND       PRES   REMARKS
BUFFALO          N/A     64  30  27 NW5       29.78F
MOBRIDGE       PTCLDY    50  36  58 SE12      29.82S
$$

SDZ012>016-024>037-041>051-057-063-072>074-280000-
SOUTHWEST AND SOUTH CENTRAL SOUTH DAKOTA

CITY           SKY/WX    TMP DP  RH WIND       PRES   REMARKS
RAPID CTY ARPT CLEAR     66  30  26 E6        29.86F
PIERRE         CLEAR     55  37  50 E6        29.84F
CUSTER         CLEAR     58  24  27 W13G23    29.98S
ELLSWORTH AFB  CLEAR     67  32  26 SE6       29.86F
PHILIP         CLEAR     70  28  21 S5        29.84S
PINE RIDGE     CLEAR     62  35  36 SW6       29.92F
WINNER         FAIR      63  36  36 E3        29.87F
$$

SDZ004>011-016>023-039-040-280000-
NORTHEAST SOUTH DAKOTA

CITY           SKY/WX    TMP DP  RH WIND       PRES   REMARKS
ABERDEEN       CLEAR     41  36  82 S13       29.91S
WATERTOWN      PTCLDY    34  30  85 SE13      29.95S WCI  25
SISSETON         N/A     31  31 100 S15       29.96F WCI  20
$$

SDZ017-020-022-023-036>040-048>070-280000-
SOUTHEAST SOUTH DAKOTA

CITY           SKY/WX    TMP DP  RH WIND       PRES   REMARKS
SIOUX FALLS    MOCLDY    41  35  79 SE12      30.00S
HURON          CLEAR     39  35  86 SE15G22   29.93R
CHAMBERLAIN    CLEAR     52  38  59 SE9       29.88S
MITCHELL       CLEAR     43  39  86 SE12      29.95S
YANKTON        CLEAR     50  36  57 SE12      29.98S
$$

ABBREVIATIONS USED IN REMARKS
   TC - TEMPERATURE IN CELSIUS
  WCI - WIND CHILL INDEX
   HX - HEAT INDEX
  VSB - VISIBILITY




USA.gov is the U.S. government's official web portal to all federal, state and local government web resources and services.